• In Hungary
  • List of Countries
  • For 7 days
  • Water Temperature
  • Satellite Maps
  • Weather Map
  • News
  • Weather Widgets
  • user-avatar
    Login

    Hourly Weather Lyczana

    Today, 19 November, Sunday

    Time Temperature Precipitation Wind Pressure Humidity
    00:00 +1°C° 0 mm 2 mps 727 mmHg 86%
    01:00 0°C° 0 mm 3 mps 727 mmHg 85%
    02:00 0°C° 0 mm 3 mps 726 mmHg 86%
    03:00 +1°C° 0 mm 2 mps 726 mmHg 87%
    04:00 -1°C° 0 mm 2 mps 726 mmHg 88%
    05:00 -1°C° 0 mm 2 mps 726 mmHg 89%
    06:00 -1°C° 0 mm 2 mps 725 mmHg 89%
    07:00 -1°C° 0 mm 2 mps 725 mmHg 90%
    08:00 0°C° 0 mm 3 mps 725 mmHg 85%
    09:00 +1°C° 0 mm 3 mps 726 mmHg 79%
    10:00 +3°C° 0 mm 3 mps 726 mmHg 74%
    11:00 +3°C° 0 mm 3 mps 725 mmHg 71%
    12:00 +3°C° 0 mm 3 mps 725 mmHg 69%
    13:00 +4°C° 0 mm 3 mps 725 mmHg 66%
    14:00 +3°C° 0.1 mm 3 mps 725 mmHg 71%
    15:00 +3°C° 0.1 mm 2 mps 725 mmHg 77%
    16:00 +2°C° 0.1 mm 2 mps 724 mmHg 82%
    17:00 +1°C° 0.1 mm 2 mps 724 mmHg 83%
    18:00 +1°C° 0.1 mm 2 mps 724 mmHg 84%
    19:00 -1°C° 0.1 mm 3 mps 724 mmHg 85%
    20:00 -1°C° 0 mm 3 mps 724 mmHg 85%
    21:00 -1°C° 0 mm 3 mps 724 mmHg 85%
    22:00 0°C° 0 mm 3 mps 724 mmHg 85%
    23:00 0°C° 0.1 mm 3 mps 724 mmHg 85%

    Tomorrow, 20 November, Monday

    Time Temperature Precipitation Wind Pressure Humidity
    00:00 0°C° 0.1 mm 3 mps 724 mmHg 86%
    01:00 0°C° 0.1 mm 3 mps 725 mmHg 86%
    02:00 0°C° 0.4 mm 3 mps 725 mmHg 87%
    03:00 0°C° 0.4 mm 3 mps 725 mmHg 87%
    04:00 -1°C° 0.4 mm 4 mps 725 mmHg 88%
    05:00 -1°C° 0 mm 4 mps 725 mmHg 86%
    06:00 -1°C° 0 mm 5 mps 725 mmHg 84%
    07:00 -2°C° 0 mm 5 mps 726 mmHg 83%
    08:00 -2°C° 0.1 mm 6 mps 726 mmHg 81%
    09:00 -2°C° 0.1 mm 6 mps 727 mmHg 80%
    10:00 -1°C° 0.1 mm 7 mps 727 mmHg 79%
    11:00 -1°C° 0.1 mm 6 mps 728 mmHg 78%
    12:00 -1°C° 0.1 mm 6 mps 728 mmHg 77%
    13:00 0°C° 0.1 mm 5 mps 728 mmHg 76%
    14:00 -1°C° 0 mm 4 mps 728 mmHg 78%
    15:00 0°C° 0 mm 3 mps 728 mmHg 80%
    16:00 -1°C° 0 mm 2 mps 728 mmHg 82%
    17:00 -1°C° 0.1 mm 2 mps 728 mmHg 83%
    18:00 -1°C° 0.1 mm 2 mps 728 mmHg 84%
    19:00 -1°C° 0.1 mm 2 mps 728 mmHg 85%
    20:00 -1°C° 0.1 mm 2 mps 728 mmHg 86%
    21:00 -1°C° 0.1 mm 2 mps 728 mmHg 87%
    22:00 -1°C° 0.1 mm 2 mps 728 mmHg 88%
    23:00 -1°C° 0.1 mm 2 mps 728 mmHg 88%

    Day after tomorrow, 21 November, Tuesday

    Time Temperature Precipitation Wind Pressure Humidity
    00:00 -1°C° 0.1 mm 2 mps 728 mmHg 88%
    01:00 -1°C° 0.1 mm 2 mps 727 mmHg 88%
    02:00 -1°C° 0.4 mm 2 mps 727 mmHg 89%
    03:00 +1°C° 0.4 mm 2 mps 726 mmHg 90%
    04:00 +1°C° 0.4 mm 2 mps 725 mmHg 91%
    05:00 +1°C° 0.6 mm 2 mps 725 mmHg 91%
    06:00 +1°C° 0.6 mm 2 mps 724 mmHg 92%
    07:00 +1°C° 0.6 mm 2 mps 724 mmHg 93%
    08:00 +1°C° 0.5 mm 2 mps 724 mmHg 94%
    09:00 +2°C° 0.5 mm 2 mps 724 mmHg 95%
    10:00 +2°C° 0.5 mm 2 mps 724 mmHg 95%
    11:00 +3°C° 0.3 mm 2 mps 724 mmHg 96%
    12:00 +3°C° 0.3 mm 2 mps 724 mmHg 96%
    13:00 +3°C° 0.3 mm 2 mps 724 mmHg 96%
    14:00 +4°C° 0.1 mm 1 mps 724 mmHg 97%
    15:00 +4°C° 0.1 mm 1 mps 724 mmHg 97%
    16:00 +4°C° 0.1 mm 1 mps 724 mmHg 98%
    17:00 +4°C° 0.3 mm 1 mps 725 mmHg 98%
    18:00 +4°C° 0.3 mm 1 mps 725 mmHg 98%
    19:00 +2°C° 0.3 mm 0 mps 725 mmHg 98%
    20:00 +2°C° 0.2 mm 0 mps 726 mmHg 97%
    21:00 +3°C° 0.2 mm 1 mps 726 mmHg 97%
    22:00 +3°C° 0.2 mm 1 mps 726 mmHg 97%
    23:00 +3°C° 0 mm 1 mps 727 mmHg 97%

    22 November, Wednesday

    Time Temperature Precipitation Wind Pressure Humidity
    00:00 +3°C° 0 mm 1 mps 727 mmHg 97%
    01:00 +2°C° 0 mm 1 mps 727 mmHg 97%
    02:00 +2°C° 0 mm 1 mps 727 mmHg 97%
    03:00 +1°C° 0 mm 0 mps 727 mmHg 97%
    04:00 +1°C° 0 mm 0 mps 728 mmHg 97%
    05:00 +2°C° 0 mm 1 mps 728 mmHg 96%
    06:00 +3°C° 0 mm 1 mps 728 mmHg 96%
    07:00 +3°C° 0 mm 1 mps 728 mmHg 96%
    08:00 +4°C° 0.1 mm 1 mps 728 mmHg 96%
    09:00 +3°C° 0.1 mm 2 mps 729 mmHg 96%
    10:00 +4°C° 0.1 mm 2 mps 729 mmHg 96%
    11:00 +5°C° 0 mm 2 mps 729 mmHg 96%
    12:00 +6°C° 0 mm 2 mps 729 mmHg 95%
    13:00 +6°C° 0 mm 2 mps 728 mmHg 95%
    14:00 +6°C° 0 mm 2 mps 728 mmHg 95%
    15:00 +5°C° 0 mm 2 mps 728 mmHg 95%
    16:00 +4°C° 0 mm 2 mps 728 mmHg 94%
    17:00 +4°C° 0 mm 2 mps 729 mmHg 94%
    18:00 +4°C° 0 mm 2 mps 729 mmHg 93%
    19:00 +4°C° 0 mm 2 mps 729 mmHg 93%
    20:00 +3°C° 0 mm 2 mps 729 mmHg 92%
    21:00 +3°C° 0 mm 2 mps 729 mmHg 91%
    22:00 +3°C° 0 mm 2 mps 729 mmHg 91%
    23:00 +3°C° 0 mm 2 mps 730 mmHg 90%

    23 November, Thursday

    Time Temperature Precipitation Wind Pressure Humidity
    00:00 +3°C° 0 mm 2 mps 730 mmHg 89%
    01:00 +3°C° 0 mm 2 mps 730 mmHg 88%
    02:00 +3°C° 0 mm 2 mps 730 mmHg 87%
    03:00 +2°C° 0 mm 3 mps 730 mmHg 86%
    04:00 +2°C° 0 mm 3 mps 730 mmHg 85%
    05:00 +2°C° 0 mm 3 mps 730 mmHg 85%
    06:00 +2°C° 0 mm 3 mps 731 mmHg 84%
    07:00 +2°C° 0 mm 3 mps 731 mmHg 83%
    08:00 +3°C° 0 mm 3 mps 731 mmHg 82%
    09:00 +4°C° 0 mm 3 mps 732 mmHg 81%
    10:00 +5°C° 0 mm 3 mps 732 mmHg 79%
    11:00 +7°C° 0 mm 3 mps 732 mmHg 79%
    12:00 +8°C° 0 mm 3 mps 732 mmHg 79%
    13:00 +8°C° 0 mm 3 mps 732 mmHg 79%
    14:00 +7°C° 0 mm 3 mps 732 mmHg 81%
    15:00 +5°C° 0 mm 3 mps 733 mmHg 84%
    16:00 +4°C° 0 mm 3 mps 733 mmHg 87%
    17:00 +4°C° 0 mm 3 mps 733 mmHg 87%
    18:00 +4°C° 0 mm 3 mps 733 mmHg 87%
    19:00 +3°C° 0 mm 3 mps 734 mmHg 87%
    20:00 +3°C° 0 mm 3 mps 734 mmHg 86%
    21:00 +3°C° 0 mm 3 mps 734 mmHg 86%
    22:00 +3°C° 0 mm 3 mps 734 mmHg 85%
    23:00 +3°C° 0 mm 3 mps 734 mmHg 85%

    24 November, Friday

    Time Temperature Precipitation Wind Pressure Humidity
    00:00 +3°C° 0 mm 3 mps 734 mmHg 85%
    01:00 +3°C° 0 mm 3 mps 735 mmHg 85%
    02:00 +3°C° 0 mm 3 mps 735 mmHg 85%
    03:00 +3°C° 0 mm 3 mps 735 mmHg 86%
    04:00 +4°C° 0 mm 2 mps 735 mmHg 86%
    05:00 +4°C° 0 mm 2 mps 735 mmHg 86%
    06:00 +4°C° 0 mm 2 mps 735 mmHg 86%
    07:00 +4°C° 0 mm 2 mps 735 mmHg 86%
    08:00 +5°C° 0 mm 2 mps 735 mmHg 84%
    09:00 +6°C° 0 mm 2 mps 736 mmHg 82%
    10:00 +7°C° 0 mm 2 mps 736 mmHg 80%
    11:00 +8°C° 0 mm 2 mps 736 mmHg 79%
    12:00 +9°C° 0 mm 2 mps 735 mmHg 79%
    13:00 +9°C° 0 mm 2 mps 735 mmHg 79%
    14:00 +9°C° 0 mm 2 mps 735 mmHg 82%
    15:00 +8°C° 0 mm 2 mps 735 mmHg 86%
    16:00 +7°C° 0 mm 2 mps 735 mmHg 89%
    17:00 +6°C° 0 mm 2 mps 735 mmHg 89%
    18:00 +6°C° 0 mm 2 mps 735 mmHg 90%
    19:00 +5°C° 0 mm 3 mps 735 mmHg 90%
    20:00 +4°C° 0 mm 3 mps 735 mmHg 90%
    21:00 +4°C° 0 mm 3 mps 736 mmHg 89%
    22:00 +4°C° 0 mm 3 mps 736 mmHg 89%
    23:00 +4°C° 0 mm 3 mps 736 mmHg 89%
    Show more